Location: Hamilton
(37.7830°S, 175.2830°E)
Time: 17:30:06
(UTC+13:00)

Cosmos 2278 Rocket - Pass Details

Date: 24 January 2019
Orbit: 839 x 847 km, 71.0° (Epoch: 18 October)

Event Time Altitude Azimuth Distance (km) Brightness Sun altitude
Rises 23:34:49 0° 192° (SSW) 3,428 6.5 -26.8°
Reaches altitude 10° 23:37:41 10° 179° (S) 2,486 5.4 -27.1°
Maximum altitude 23:42:26 26° 123° (ESE) 1,601 3.6 -27.6°
Enters shadow 23:42:54 26° 115° (ESE) 1,610 3.6 -27.6°
